Regional Weather Roundup
Issued by NWS

Home | Current Version | Previous Version | Text Only | Print | Product List | Glossary Off
Versions: 1 2 3 4 5 6 7 8 9 10 11 12 13 14 15 16 17 18 19 20 21 22 23 24 25 26 27 28 29 30 31 32 33 34 35 36 37 38 39 40 41 42 43 44 45 46 47 48 49 50

000
ASUS43 KMKX 271959
RWRWI

WISCONSIN REGIONAL WEATHER ROUNDUP
NATIONAL WEATHER SERVICE MILWAUKEE/SULLIVAN WI
200 PM CST FRI FEB 27 2015

NOTE: "FAIR" INDICATES FEW OR NO CLOUDS BELOW 12,000 FEET WITH NO
SIGNIFICANT WEATHER AND/OR OBSTRUCTIONS TO VISIBILITY.

WIZ001-002-006>008-014>016-023>028-272100-
NORTHWEST WISCONSIN

CITY           SKY/WX    TMP DP  RH WIND       PRES   REMARKS
SUPERIOR ARPT  SUNNY     17  -3  41 W8        30.45F WCI   7
ASHLAND        SUNNY     17  -6  35 SW12      30.43F WCI   4
HAYWARD        SUNNY     14  -8  37 VRB7      30.43F WCI   4
SIREN          SUNNY     14  -4  45 W12G17    30.48F WCI   0
CUMBERLAND     SUNNY     10  -6  48 W10       30.46F WCI  -3
RICE LAKE      SUNNY     11  -5  47 W8        30.50F WCI   0
CHETEK         SUNNY     12  -4  47 SW7       30.49F WCI   1
LADYSMITH      SUNNY     13  -4  46 W7        30.47S WCI   3
EAU CLAIRE     NOT AVBL
MENOMONIE      SUNNY     14  -1  51 SW6       30.52F WCI   5
NEW RICHMOND   SUNNY     15  -1  49 SW8       30.50F WCI   3
OSCEOLA        SUNNY     16   0  48 W7        30.53F WCI   7
$$

WIZ003>005-009-010-017-018-272100-
NORTH CENTRAL WISCONSIN

CITY           SKY/WX    TMP DP  RH WIND       PRES   REMARKS
MANITOWISH WTR SUNNY     13  -6  41 W10G17    30.35S WCI   0
ARBOR VITAE    SUNNY     17  -3  42 W8        30.35F WCI   6
WOODRUFF       SUNNY     17  -3  42 W8        30.35F WCI   6
RHINELANDER    SUNNY     15  -4  42 W10       30.36F WCI   2
EAGLE RIVER    SUNNY     15  -8  36 SW10      30.34F WCI   2
LAND O LAKES   SUNNY     17  -7  33 W9        30.34S WCI   6
PHILLIPS       SUNNY     13  -6  42 W6        30.39F WCI   4
TOMAHAWK       SUNNY     15  -7  37 CALM      30.39F
MEDFORD        SUNNY      8  -5  53 SW9       30.43S WCI  -5
MERRILL        SUNNY     14  -5  42 SW7G16    30.42F WCI   4
$$

WIZ029-030-035-036-043>047-272100-
CENTRAL WISCONSIN

CITY           SKY/WX    TMP DP  RH WIND       PRES   REMARKS
WAUSAU         SUNNY     11  -5  48 W14       30.44F WCI  -5
MOSINEE        SUNNY     10  -2  56 W13       30.47S WCI  -5
MARSHFIELD     SUNNY     13  -5  44 W8        30.46F WCI   2
STEVENS POINT  SUNNY     11  -8  43 W10       30.48F WCI  -3
WAUPACA        SUNNY     19  -4  35 W8        30.50F WCI   9
WAUTOMA        NOT AVBL
WISC RAPIDS    SUNNY     15  -7  37 W8G17     30.50F WCI   4
CAMP DOUGLAS   NOT AVBL
$$

WIZ011>013-019>022-031-037>040-048>050-272100-
NORTHEAST WISCONSIN

CITY           SKY/WX    TMP DP  RH WIND       PRES   REMARKS
ANTIGO         SUNNY     11  -4  49 SW12      30.39F WCI  -3
SHAWANO        SUNNY     19  -4  36 W10       30.48S WCI   7
OCONTO         SUNNY     17  -2  42 W12G17    30.47S WCI   4
STURGEON BAY   SUNNY     16  -2  45 W12G18    30.49R WCI   3
GREEN BAY      SUNNY     17   0  47 W12       30.49F WCI   4
MANITOWOC      NOT AVBL
APPLETON       SUNNY     16  -2  45 W12       30.49F WCI   3
CLINTONVILLE   SUNNY     18  -4  38 SW9       30.48S WCI   6
OSHKOSH        SUNNY     16  -1  47 SW9       30.50F WCI   4
$$

WIZ032>034-041-042-053>061-272100-
SOUTHWEST WISCONSIN

CITY           SKY/WX    TMP DP  RH WIND       PRES   REMARKS
LA CROSSE      SUNNY     15  -5  40 W7        30.57F WCI   5
SPARTA         SUNNY     14  -5  42 W9G17     30.55F WCI   2
VIROQUA        SUNNY     12  -4  49 SW7       30.51F WCI   1
BOSCOBEL       SUNNY     15  -5  40 SW7       30.58F WCI   5
PRAIRIE DU CHI SUNNY     11  -6  46 W8        30.60F WCI  -1
PLATTEVILLE    SUNNY     11  -4  51 SW9       30.56F WCI  -2
$$

WIZ056-057-062-063-064-067-068-272100-
SOUTH CENTRAL WISCONSIN

CITY           SKY/WX    TMP DP  RH WIND       PRES   REMARKS
REEDSBURG      SUNNY     13  -4  45 W8        30.53F WCI   2
BARABOO/DELLS  SUNNY     14  -5  43 W8        30.52F WCI   2
LONE ROCK      NOT AVBL
MINERAL POINT  SUNNY     12  -4  48 W10       30.53F WCI  -1
MADISON        SUNNY     14  -5  42 SW7       30.54F WCI   4
MIDDLETON      SUNNY     18  -5  34 SW7       30.54S WCI   9
WATERTOWN      SUNNY     15  -3  44 W7        30.54S WCI   5
MONROE         SUNNY     14  -2  48 W10       30.54F WCI   1
JANESVILLE     SUNNY     14  -6  41 W7        30.56F WCI   4
$$

WIZ051-052-058>065-066-070>072-272100-
SOUTHEAST WISCONSIN

CITY           SKY/WX    TMP DP  RH WIND       PRES   REMARKS
MILWAUKEE      SUNNY     17  -7  34 W10       30.55F WCI   5
WAUKESHA       SUNNY     12  -6  44 SW9       30.54F WCI   0
MILWAUKEE/TIMM SUNNY     18  -6  35 W8        30.55F WCI   7
RACINE         SUNNY     14  -5  42 VRB7      30.57F WCI   4
BURLINGTON     SUNNY     12  -5  46 W10       30.56F WCI  -1
KENOSHA        SUNNY     14  -3  47 W12       30.56F WCI   0
FOND DU LAC    SUNNY     16  -3  43 SW14      30.51F WCI   2
SHEBOYGAN      SUNNY     16  -1  47 W13       30.51F WCI   2
WEST BEND      SUNNY     18  -4  38 W9        30.51F WCI   6
JUNEAU         SUNNY     14  -3  46 W10G16    30.53F WCI   1
$$

LSZ147-162-272100-
LAKE SUPERIOR

STATION/POSITION TIME  TEMP    WIND        PRES    WAVE
                       AIR SEA DIR/SP/G            HT/PER
                 (UTC) (F)     (DEG/KT/KT) (MB)    (FT/S)
DEVILS ISLAND    1900   10     230/ 17/ 21 1032.2F
PORT WING        1940   15     270/ 10/ 14 1030.8F
SAXON HARBOR     1940   17     210/  6/ 10 1030.5F
$$

LMZ867-665-643>646-272100-
LAKE MICHIGAN

STATION/POSITION TIME  TEMP    WIND        PRES    WAVE
                       AIR SEA DIR/SP/G            HT/PER
                 (UTC) (F)     (DEG/KT/KT) (MB)    (FT/S)
NORTHPORT PIER   1900   14     230/  5/ 12 1031.5
SISTER BAY       1913          260/ 12/ 14   N/A
KEWAUNEE LAKESHO 1900   14     230/ 12/ 15 1031.7F
SHEBOYGAN LAKESH 1900   14     270/ 12/ 15 1035.7F
PORT WASHINGTON  1940   17     240/  7/ 15 1034.5F
MILWAUKEE LAKESH 1900   15     250/ 11/ 13   N/A
KENOSHA   LAKESH 1900   14     260/  9/ 14 1035.2F
$$

TC  - TEMPERATURE IN CELSIUS
VSB - VISIBILITY IN STATUTE MILES
WCI - WIND CHILL INDEX
HX  - HEAT INDEX




USA.gov is the U.S. government's official web portal to all federal, state and local government web resources and services.